sat.trackr.live / text

‹ back to catalog

STARLINK-31943

NORAD 59878 · 2024-098W

PAYLOAD ACTIVE UNKNOWN

§ Identity

Operator
Country
US
Launch date
2024-05-24
Launch site
AFETR
Launch vehicle
Mass (kg)
RCS (m²)

Purposes: comms

External: N2YO · Heavens-Above · Gunter

§ Orbital elements

Epoch: 2026-09-21T07:22:23.494368Z

Period
91.37 min
Inclination
42.9835°
Eccentricity
0.0025581
Mean motion
15.76082465 rev/d
Perigee alt
324.4 km
Apogee alt
358.7 km
Semi-major
6,719.7 km
B*
6.1568e-4
RAAN
224.3421°
Arg perigee
147.8629°
Mean anomaly
212.3806°
Rev number
13,144

§ Raw data

STARLINK-319431 59878U 24098W   26264.30721637  .00101821  00000+0  61568-3 0  99902 59878  42.9835 224.3421 0025581 147.8629 212.3806 15.76082465131445

JSON: /api/v1/satellites/59878 · /tle

For live sub-satellite position, see the globe view (requires WebGL).

§ Visibility from observer

Set your observer location to see the next 7 days of passes ≥ 10°. The values pass through the URL so the page stays shareable.

No JS? Fill the form by hand. The geolocation button needs JavaScript.